www.pogodaiklimat.ru

Погода и климат >> Архив погоды >> Украина >> Стрелковое


ПОГОДА в Стрелковом

  • Прогноз погоды в Стрелковом
  • Монитор погоды в Стрелковом

АРХИВ ПОГОДЫ в Стрелковом

Время (UTC), дата Ветер
(напр.,м/с)
 
Видим.   Явления Облачность Т
(С)
Тd
(С)
f
(%)
Тe
(С)
Тes
(С)
Комфортность P
(гПа)
Po
(гПа)
Тmin
(С)
Tmax
(С)
R
(мм)
R24
(мм)
S
(см)
12 17.06 В 8 10 км ясно +26.9 +20.0 66 +33 +36 очень
душно
1012.6 1012.2
15 17.06 В 3 10 км 1/1 1000 м
[Cu hum]
+26.5 +19.5 65 +32 +35 очень
душно
1012.1 1011.7
18 17.06 В 2 10 км ясно +24.4 +18.0 68 +29 +29 душно 1012.1 1011.7 +27.4
21 17.06 СВ 2 10 км ясно +24.4 +18.2 68 +29 +29 душно 1013.2 1012.8
00 18.06 СВ 3 10 км 1/0 2000 м
[Ac cast]
+24.3 +18.8 71 +29 +29 душно 1013.0 1012.6
03 18.06 В 4 10 км 1/0 2000 м
[Ac cast]
+24.9 +18.4 67 +29 +30 душно 1013.3 1012.9
06 18.06 В 4 10 км ясно +26.6 +18.8 62 +32 +38 очень
душно
1013.9 1013.5 +24.2
09 18.06 В 5 10 км ясно +28.0 +16.0 48 +31 +41 душно 1014.4 1014.0
12 18.06 В 5 10 км ясно +28.1 +12.9 39 +30 +37 жарко 1013.9 1013.5
15 18.06 СВ 2 10 км ясно +27.7 +14.2 44 +30 +34 жарко 1012.4 1012.0
18 18.06 СВ 1 10 км 1/0
[Ci fib]
+24.4 +16.9 63 +28 +28 душно 1012.7 1012.3 +29.0
21 18.06 С 1 10 км ясно +21.5 +17.3 77 +26 +26 душно 1013.0 1012.6
00 19.06 С 1 10 км ясно +22.2 +18.5 80 +27 +27 душно 1012.5 1012.1
03 19.06 С 1 10 км ясно +21.7 +15.1 66 +25 +26 комфорт 1012.2 1011.8
06 19.06 СВ 1 10 км ясно +27.8 +16.9 51 +31 +42 душно 1012.6 1012.2 +21.1
09 19.06 В 3 10 км ясно +28.6 +19.9 59 +35 +50 очень
душно
1012.7 1012.3
12 19.06 В 2 10 км ясно +28.8 +19.1 56 +34 +49 очень
душно
1012.1 1011.7
15 19.06 В 2 10 км 3/3 1000 м
[Cu med, cong]
+29.0 +16.3 46 +32 +35 душно 1010.6 1010.2
18 19.06 штиль 0 10 км 3/0
[Ci fib]
+25.2 +18.6 67 +30 +30 душно 1010.8 1010.4 +30.5
21 19.06 штиль 0 10 км ясно +23.4 +19.8 80 +30 +30 очень
душно
1011.0 1010.6
00 20.06 СВ 1 10 км 3/0
[Cs]
+23.9 +19.4 76 +29 +29 душно 1010.8 1010.4
03 20.06 В 4 10 км 8/0 2000 м
[Ac lent Cc]
+25.6 +21.2 77 +32 +33 очень
душно
1010.9 1010.5
06 20.06 В 5 10 км 3/0
[Ci fib]
+27.5 +21.3 69 +35 +39 очень
душно
1010.9 1010.5 +22.6
09 20.06 В 5 10 км 3/0
[Ci ing]
+28.2 +22.3 70 +37 +46 очень
душно
1011.2 1010.8
12 20.06 В 4 10 км 3/1 600 м
[Cu med, cong Ci fib]
+29.1 +21.3 63 +37 +45 очень
душно
1010.7 1010.3
15 20.06 В 3 10 км 3/0
[Ci fib]
+28.6 +19.5 58 +34 +37 очень
душно
1009.9 1009.5
18 20.06 В 2 10 км 1/0
[Ci fib]
+26.2 +18.3 62 +31 +31 очень
душно
1010.4 1010.0 +29.6
21 20.06 СВ 3 10 км ясно +25.8 +18.9 66 +31 +31 очень
душно
1010.8 1010.4
00 21.06 В 4 10 км ясно +26.8 +19.4 64 +32 +32 очень
душно
1011.0 1010.6
06 21.06 СВ 4 10 км ясно +27.9 +20.5 64 +35 +41 очень
душно
1012.0 1011.6 +25.6
12 21.06 В 7 10 км 1/1 1000 м
[Cu med, cong]
+28.9 +21.4 64 +37 +40 очень
душно
1012.2 1011.8
18 21.06 В 3 10 км 1/0 1000 м
[]
+27.4 +20.2 65 +34 +34 очень
душно
1011.8 1011.4 +29.6
00 22.06 В 4 10 км ясно +26.1 +23.0 83 +35 +35 очень
душно
1012.6 1012.2
06 22.06 ЮВ 2 10 км 9/6 600 м
[Cb cap Cc]
+27.5 +18.4 58 +32 +36 очень
душно
1013.8 1013.4 +25.0
12 22.06 ЮВ 2 10 км 9/6 600 м
[Cb cap Ac cast]
+27.4 +22.2 73 +36 +38 очень
душно
1014.5 1014.1
18 22.06 С 3 10 км слаб. ливневой дождь 10/10 720 м
[Cb cap]
+23.3 +16.8 67 +28 +28 душно 1014.8 1014.4 +29.6 0.6
00 23.06 З 4 10 км слаб. ливневой дождь {гроза} 10/10 750 м
[Cb cap]
+21.8 +17.9 79 +26 +26 душно 1011.7 1011.3
06 23.06 В 3 10 км слаб. ливневой дождь 9/9 600 м
[Cb cap]
+25.4 +21.5 79 +32 +33 очень
душно
1012.1 1011.7 +21.1 3
12 23.06 В 6 10 км {гроза, ливн. осадки} 4/4 1000 м
[Cu med, cong]
+28.6 +20.4 61 +35 +39 очень
душно
1012.1 1011.7
18 23.06 ЮВ 2 10 км 8/4 1000 м
[Sc Ac cuf Cc]
+25.4 +22.3 83 +33 +33 очень
душно
1011.9 1011.5 +29.3 0.0
00 24.06 СВ 2 10 км 8/5 600 м
[Cb cap Ac und Cc]
+24.4 +22.6 90 +32 +32 очень
душно
1012.1 1011.7
06 24.06 В 1 10 км 8/1 600 м
[Cu med, cong Cc]
+26.8 +20.7 69 +33 +42 очень
душно
1012.4 1012.0 +22.0

 

Местоположение метеостанции Стрелковое (Херсонская область, Украина): широта 45.55 долгота 34.55 высота над уровнем моря 27 м.

В архиве по умолчанию представлена погода в Стрелковом за последнюю неделю. Архивные данные за месяц целиком и за предыдущие месяцы, начиная с января 2011 года, Вы можете получить, выбрав интересующий диапазон дат из раскрывающегося списка и нажав кнопку "Ввод!".


*Определитесь, кто Вы:
робот инопланетянин человек

Внимание! Время в таблицах - всемирное. Для получения местного времени необходимо прибавить поправку, которая равна 2 ч.

Смотрите также архив погоды в соседних городах и на ближайших метеорологических станциях:

Погода в Нижнегорском (Крым, Россия) (18 км)
Погода в Джанкое (Крым, Россия) (22 км)
Погода в Клепинино (Крым, Россия) (29 км)
Погода в Белогорске (Крым, Россия) (56 км)
Погода в Ишуни (Крым, Россия) (70 км)
Погода в Геническе (Херсонская область, Украина) (72 км)
Погода в Симферополе (Крым, Россия) (74 км)
Погода в Симферополе город (Крым, Россия) (75 км)
Погода в Владиславовке (Крым, Россия) (77 км)
Погода в Феодосии (Крым, Россия) (87 км)

Пояснения к столбцам:

Ветер - указаны скорость ветра в м/с - средняя за 10 мин, порывы в срок и между сроками (в фигурных скобках) и направление, откуда дует ветер: С - северный, СВ - северо-восточный, В - восточный, ЮВ - юго-восточный, Ю - южный, ЮЗ - юго-западный, З - западный, СЗ - северо-западный.
Видимость - горизонтальная дальность видимости в метрах или километрах. При видимости от 1 до 10 км при отсутствии осадков обычно наблюдается дымка, при ухудшении видимости до 1 км и менее - туман. В сухую погоду видимость может ухудшаться дымом, пылью или мглою.
Явления - указаны атмосферные явления, наблюдавшиеся в срок или в последний час перед сроком; фигурными скобками обозначены явления, наблюдавшиеся между сроками (за 1-3 часа до срока); квадратными скобками обозначены град или гололедные отложения с указанием их диаметра в мм.
Облачность - указаны через наклонную черту общая и нижняя облачность в баллах и высота нижней границы облаков в метрах; квадратными скобками обозначены формы облаков: Ci - перистые, Cs - перисто-слоистые, Cc - перисто-кучевые, Ac - высококучевые, As - высокослоистые, Sc - слоисто-кучевые, Ns - слоисто-дождевые, Cu - кучевые, Cb - кучево-дождевые. Подробнее классификацию облаков см. в Атласе облаков (PDF).
T - Температура воздуха - температура, измеренная на высоте 2 м над землей.
Td - Температура точки росы - температура, при понижении до которой содержащийся в воздухе водяной пар достигнет насыщения.
f - Относительная влажность воздуха - влажноcть воздуха, измеренная на высоте 2 м над землей.
Te - Эффективная температура - температура, которую ощущает одетый по сезону человек в тени. Характеристика душности погоды. При расчете учитывается влияние влажности воздуха и скорости ветра на теплоощущения человека.
Tes - Эффективная температура на солнце - температура, которую ощущает человек, с поправкой на солнечный нагрев. Характеристика знойности погоды. Зависит от высоты солнца над горизонтом, облачности и скорости ветра. Ночью, в пасмурную погоду, а также при ветре 12 м/с и более поправка равна нулю.
P - Атмосферное давление - приведенное к уровню моря атмосферное давление.
Po - Атмосферное давление - измеренное на уровне метеостанции атмосферное давление.
Tmin - Минимальная температура - минимум температуры воздуха на высоте 2 м над землей.
Tmax - Максимальная температура - максимум температуры воздуха на высоте 2 м над землей.
R - Количество осадков - Количество выпавших осадков за период времени, мм. При наведении курсора мыши на число - период времени, за который выпало указанное количество осадков.
R24 - Количество осадков - Количество выпавших осадков за 24 часа, мм.
S - Снежный покров - Высота снежного покрова, см. При наведении курсора мыши на число - состояние снежного покрова и степень покрытия местности в баллах.